Wind_Speed
7 8 12 12 10 12 12 9 8 12 14 13 11 12 16 16 18 17 18 18 19 21 22 22 24 24 21 17 14 13 14 13 14 12 10 9 10 14 18 17 18 20 18 18
6 12 13 15 16 16 17 13 11 10 15 14 16 17 17 17 17 18 19 19 20 21 22 26 27 22 16 12 11 8 9 10 12 11 11 8 7 10 12 12 11 11 13 12
5 5 10 14 13 15 14 6 5 10 5 14 15 17 17 16 16 19 19 19 20 20 20 26 24 18 16 12 5 4 6 7 8 6 9 9 6 6 7 9 12 7 6 5
8 5 6 1 2 4 9 8 7 11 11 13 16 18 17 8 13 18 17 17 18 19 20 23 23 15 13 9 3 5 7 9 8 9 7 7 6 8 10 10 7 5 10 13
4 9 13 10 4 2 3 9 10 14 11 11 15 19 5 5 17 17 15 15 16 15 16 19 20 13 10 8 8 7 6 4 5 10 10 12 10 10 10 8 14 16 18 17
6 9 6 2 3 7 6 7 12 8 8 8 10 6 3 18 17 17 17 18 18 17 17 15 16 13 12 13 13 13 9 6 6 7 6 7 9 9 10 12 10 10 10 8
10 9 8 5 8 6 5 4 4 5 7 8 5 8 17 17 15 14 14 14 13 15 15 15 13 14 13 15 17 16 13 11 11 12 10 8 8 7 7 6 5 4 4 3
5 4 5 11 8 6 1 3 5 5 5 5 10 12 13 12 13 12 14 13 13 14 14 13 12 10 13 16 14 15 18 20 18 15 15 13 10 10 9 8 7 7 6 4
4 3 1 17 9 14 7 7 6 6 5 5 6 7 7 10 12 11 10 9 9 14 13 13 12 11 14 14 14 14 16 17 18 18 18 17 17 15 14 12 10 9 8 7
6 4 18 15 19 12 14 11 8 7 6 5 6 6 7 7 8 9 9 9 8 13 12 14 14 14 10 8 8 11 14 14 14 15 15 16 17 17 18 17 15 14 12 10
11 16 9 16 21 20 17 14 12 9 8 7 6 5 6 6 7 7 7 8 8 11 12 10 9 8 7 7 7 8 8 8 9 11 12 17 17 17 16 16 13 12 13 11
6 9 13 5 22 21 19 18 14 11 9 7 6 5 4 4 5 6 7 7 8 8 8 9 10 10 9 9 9 9 9 10 12 11 11 10 12 16 15 15 14 14 14 12
7 7 18 6 18 22 21 18 16 14 11 9 8 6 5 4 3 4 4 6 7 7 7 7 7 8 8 8 8 8 8 9 10 9 9 9 8 6 9 14 15 14 12 11
19 9 16 14 19 24 23 19 17 15 13 12 10 9 7 6 5 3 4 3 3 4 5 5 6 7 7 7 6 5 10 11 7 7 7 8 7 7 7 6 6 8 10 10
23 21 10 17 17 23 23 22 21 20 17 16 14 12 11 9 8 7 6 5 4 3 3 3 3 3 3 5 5 5 4 3 4 6 8 6 4 4 5 5 6 7 7 8
23 23 22 18 24 24 26 26 25 23 21 19 18 16 14 12 10 9 8 7 6 4 5 4 3 3 3 3 3 1 3 5 9 3 2 2 3 3 4 5 4 4 4 6
21 30 29 28 29 28 31 28 27 24 22 22 20 17 15 14 13 12 11 10 10 9 8 6 6 6 3 2 2 3 3 1 3 3 2 2 2 2 3 3 4 4 5 7
28 27 27 28 26 28 28 29 27 26 25 22 20 19 18 17 16 14 13 12 12 12 11 10 9 8 6 5 4 4 3 2 0 0 1 1 0 1 1 2 3 4 5 7
24 27 27 27 29 27 29 30 30 27 25 23 22 23 21 19 18 16 15 15 16 15 14 13 14 12 11 10 8 7 5 5 4 4 4 3 2 2 4 4 5 6 7 8
16 22 27 28 27 29 29 30 29 28 27 25 24 23 23 22 20 18 17 19 19 16 12 12 15 14 13 14 11 9 8 8 7 7 7 6 6 7 7 8 9 9 10 10
13 14 20 27 29 29 30 29 32 31 29 28 28 28 26 22 20 20 20 20 18 18 18 19 17 15 15 15 13 12 11 10 10 10 10 9 9 9 10 11 12 13 13 13
16 16 17 22 29 31 31 30 30 32 30 31 32 31 28 25 22 22 22 22 16 18 19 20 19 18 16 17 17 16 15 14 14 13 13 13 14 14 14 15 16 16 17 17
22 19 19 20 25 30 29 31 32 33 36 35 36 35 34 27 24 24 25 22 22 21 22 20 20 20 18 20 21 21 19 19 18 18 17 17 18 18 19 20 20 20 21 21
22 20 19 17 18 24 29 30 31 32 34 37 33 31 31 28 29 27 24 22 23 23 26 25 25 24 21 23 25 25 25 24 24 23 23 23 24 24 25 24 25 25 25 25
26 23 19 16 18 23 26 27 29 30 31 31 33 32 32 33 31 25 25 25 26 28 29 28 26 25 25 27 29 30 30 31 30 29 29 29 30 31 30 29 30 30 30 30
31 27 24 19 19 20 22 23 27 30 29 31 33 33 35 34 34 32 29 28 26 27 29 31 30 29 31 32 33 34 34 34 34 34 33 32 31 31 32 32 32 33 33 33
35 32 29 22 15 15 18 21 23 26 29 31 31 32 33 34 35 35 33 35 35 35 35 34 32 31 31 33 34 35 35 36 36 35 35 35 35 34 34 35 35 34 34 34
Wind_Direction
268 256 259 269 263 263 264 273 282 319 308 313 340 316 322 326 318 320 325 322 325 326 323 326 324 319 310 301 286 262 245 228 213 193 185 193 201 211 215 215 220 229 234 245
278 243 257 262 258 254 253 265 269 285 288 13 326 327 322 323 327 330 327 326 327 327 327 325 324 321 317 315 294 251 221 224 203 185 182 173 208 210 212 213 219 230 239 238
288 332 298 267 250 238 252 238 251 258 310 314 319 316 316 324 325 327 323 325 327 327 325 323 325 326 328 321 309 239 196 176 185 187 147 189 176 190 205 212 208 210 225 229
291 286 247 82 214 309 237 250 230 248 269 282 298 306 310 300 326 324 324 325 325 325 325 327 327 333 344 348 45 119 109 144 154 159 174 181 183 195 201 203 179 175 204 201
277 296 291 214 141 213 198 275 227 237 254 281 302 302 255 323 329 324 318 323 323 323 326 327 328 350 360 32 56 76 86 111 175 179 160 167 166 170 184 174 197 197 212 224
290 302 289 92 156 186 184 274 131 188 233 276 310 301 21 327 330 335 339 340 339 342 341 341 347 16 14 33 49 54 71 109 134 139 156 176 186 183 174 186 188 197 223 239
257 256 266 135 172 181 245 50 149 206 245 259 269 274 299 317 327 333 338 341 346 344 350 355 1 20 31 43 50 49 57 79 98 106 111 116 124 142 156 175 193 193 169 181
257 267 266 156 166 224 247 262 255 266 268 274 272 302 312 323 332 347 354 360 349 352 358 7 15 26 29 36 44 61 61 73 79 91 97 99 111 121 132 145 153 155 145 136
259 271 198 192 199 218 237 255 260 272 289 287 301 314 322 323 341 347 349 353 351 354 8 21 25 47 46 33 41 52 72 74 77 80 85 96 100 100 105 107 113 118 117 111
269 273 245 229 229 235 229 239 246 250 270 279 299 318 326 334 340 347 351 353 353 357 18 13 6 32 27 38 38 40 58 70 86 88 93 99 94 95 101 98 98 103 104 103
250 252 243 231 226 225 225 226 231 238 251 258 286 306 325 336 344 350 354 354 357 352 13 13 14 23 29 44 51 53 59 62 54 64 74 76 84 96 93 93 96 99 96 85
224 223 199 240 210 209 213 217 221 226 235 244 260 281 303 321 333 349 351 358 4 3 8 11 13 16 25 38 41 47 52 57 69 62 69 72 70 79 86 89 85 81 80 83
243 232 206 223 194 197 205 210 213 219 226 232 239 243 254 276 297 301 352 347 353 359 3 7 10 18 29 46 50 56 57 58 54 67 72 72 80 72 69 83 85 85 86 87
226 214 204 205 193 195 199 203 209 213 220 222 224 226 227 234 256 269 287 296 318 340 356 0 5 12 38 52 50 55 50 62 61 63 63 66 71 70 74 79 76 70 75 72
220 218 228 210 200 198 198 201 206 211 213 215 217 218 221 226 234 246 249 256 275 298 309 332 333 348 22 75 77 82 74 91 62 58 81 88 81 83 83 77 65 60 46 52
226 221 218 213 205 203 201 204 208 211 212 214 216 219 220 225 230 238 242 241 243 246 262 264 287 322 27 74 123 86 65 96 128 115 84 94 90 78 65 63 62 45 17 17
234 222 217 218 211 208 208 209 211 212 213 215 217 219 221 224 230 234 238 243 247 250 250 248 248 269 315 10 117 195 189 325 69 124 151 114 86 48 41 31 17 13 348 357
242 242 235 229 223 218 217 216 215 215 216 216 217 218 221 223 228 232 237 239 243 246 246 245 245 253 255 253 243 227 208 246 343 193 77 26 259 19 341 339 336 330 323 324
254 245 239 235 230 226 221 219 219 219 218 217 216 218 221 225 227 230 231 233 239 245 250 247 247 247 253 252 248 251 241 245 247 250 259 271 275 281 282 287 290 292 295 297
283 261 247 239 234 229 227 223 222 220 219 217 218 219 222 224 223 226 229 237 243 245 243 239 247 248 244 248 242 243 244 245 250 251 260 266 267 272 274 276 277 281 287 295
305 282 258 246 239 233 229 226 222 220 219 217 219 220 219 222 225 228 229 238 244 241 239 240 250 246 242 241 240 240 240 241 244 248 258 265 269 274 278 282 287 293 297 300
318 300 280 256 244 239 233 227 225 222 220 220 221 221 222 220 224 229 235 236 241 240 237 239 242 240 232 242 249 247 245 246 251 255 261 270 277 282 285 286 289 294 295 298
323 308 294 278 253 241 237 231 226 225 221 221 223 225 223 224 226 228 234 239 240 237 236 233 236 243 238 241 246 250 252 254 256 261 266 272 276 279 282 284 286 287 290 293
321 312 302 290 265 245 239 234 233 229 231 226 226 225 225 227 231 232 235 237 237 240 240 236 240 245 244 243 245 250 253 257 262 268 273 277 280 281 282 284 284 284 285 286
317 315 305 293 271 255 247 242 237 235 230 232 227 228 230 228 232 236 234 236 236 239 241 243 241 243 244 248 251 254 258 261 265 269 273 277 280 283 284 283 284 284 284 284
300 302 303 295 279 268 257 248 240 236 233 233 233 231 229 233 235 232 233 234 235 241 243 245 246 245 248 251 255 259 261 264 264 265 268 274 277 279 281 283 284 284 284 285
290 289 289 292 280 269 262 252 247 243 239 238 238 235 234 231 232 234 237 234 234 233 238 248 251 251 251 254 258 261 263 263 264 264 267 271 274 277 279 281 282 283 285 287
Height
1561 1563 1552 1546 1547 1547 1541 1540 1541 1539 1536 1531 1534 1534 1531 1528 1526 1524 1523 1520 1515 1511 1507 1502 1497 1490 1485 1481 1479 1477 1476 1477 1478 1479 1481 1485 1486 1491 1494 1498 1501 1504 1507 1509
1558 1552 1548 1544 1540 1537 1536 1535 1536 1538 1534 1535 1534 1533 1529 1527 1525 1523 1520 1517 1512 1507 1502 1498 1493 1488 1483 1479 1476 1473 1474 1475 1475 1476 1479 1481 1486 1489 1492 1496 1499 1501 1503 1506
1546 1548 1542 1533 1531 1534 1536 1541 1545 1544 1539 1539 1536 1533 1530 1527 1525 1523 1519 1515 1510 1505 1501 1496 1491 1485 1481 1475 1472 1470 1470 1471 1471 1474 1475 1479 1485 1487 1489 1492 1496 1500 1503 1506
1548 1553 1535 1538 1540 1539 1536 1537 1540 1540 1539 1539 1536 1531 1529 1527 1525 1521 1518 1514 1509 1505 1500 1493 1489 1484 1477 1474 1471 1469 1468 1467 1470 1472 1475 1480 1481 1482 1486 1489 1494 1498 1499 1500
1551 1535 1523 1522 1538 1540 1541 1534 1532 1534 1535 1535 1533 1528 1523 1525 1523 1519 1515 1511 1507 1504 1501 1495 1486 1483 1477 1472 1468 1467 1464 1465 1465 1469 1473 1476 1477 1481 1483 1487 1488 1491 1492 1495
1543 1544 1529 1533 1538 1537 1539 1522 1527 1531 1533 1533 1533 1525 1523 1524 1520 1517 1513 1509 1505 1500 1497 1494 1486 1482 1478 1473 1470 1468 1466 1469 1471 1469 1469 1473 1478 1479 1481 1483 1485 1488 1490 1492
1537 1534 1518 1532 1532 1535 1531 1525 1529 1529 1531 1531 1531 1530 1525 1522 1520 1517 1513 1510 1506 1501 1497 1493 1488 1483 1480 1477 1473 1470 1470 1469 1467 1469 1471 1474 1475 1478 1480 1482 1485 1487 1489 1491
1533 1528 1524 1530 1531 1532 1528 1527 1527 1526 1525 1526 1526 1525 1523 1521 1519 1516 1514 1510 1507 1503 1499 1495 1491 1487 1483 1480 1479 1477 1473 1471 1472 1473 1473 1475 1477 1479 1481 1483 1484 1485 1488 1489
1533 1523 1528 1526 1525 1527 1527 1526 1525 1525 1524 1524 1524 1523 1523 1521 1519 1517 1516 1514 1511 1505 1501 1497 1495 1492 1489 1486 1483 1481 1479 1479 1479 1479 1479 1480 1481 1482 1483 1484 1485 1487 1488 1489
1531 1519 1518 1522 1523 1523 1524 1525 1524 1524 1524 1524 1523 1522 1522 1521 1520 1518 1516 1514 1512 1508 1504 1501 1498 1495 1495 1494 1493 1489 1487 1485 1484 1484 1484 1485 1485 1485 1485 1486 1487 1489 1490 1491
1517 1512 1514 1513 1515 1518 1520 1521 1522 1523 1523 1523 1523 1522 1521 1520 1520 1518 1517 1514 1512 1510 1507 1506 1503 1501 1499 1497 1496 1495 1494 1494 1493 1491 1490 1488 1487 1486 1488 1489 1490 1490 1491 1492
1503 1500 1502 1502 1507 1512 1515 1517 1519 1521 1521 1522 1522 1522 1521 1520 1519 1518 1516 1514 1513 1511 1510 1508 1505 1502 1500 1498 1497 1497 1496 1495 1493 1494 1494 1495 1494 1493 1493 1492 1492 1493 1493 1494
1498 1498 1499 1501 1502 1507 1511 1514 1516 1518 1519 1520 1520 1520 1520 1520 1520 1518 1517 1516 1514 1512 1510 1509 1507 1506 1503 1501 1500 1499 1499 1499 1499 1499 1499 1499 1499 1500 1497 1497 1496 1495 1496 1497
1497 1498 1498 1498 1498 1502 1506 1510 1513 1514 1516 1517 1518 1518 1519 1519 1518 1518 1517 1516 1515 1513 1512 1511 1509 1507 1505 1503 1503 1503 1502 1502 1503 1503 1502 1502 1502 1501 1500 1500 1499 1498 1497 1497
1491 1493 1493 1495 1497 1499 1502 1505 1508 1509 1511 1513 1514 1515 1516 1516 1517 1516 1516 1515 1514 1513 1513 1512 1511 1510 1507 1506 1506 1505 1506 1507 1507 1504 1503 1504 1504 1503 1502 1501 1500 1498 1498 1497
1489 1489 1491 1491 1493 1494 1497 1499 1501 1503 1506 1508 1510 1511 1512 1513 1514 1514 1514 1513 1513 1514 1514 1512 1511 1509 1508 1507 1507 1508 1506 1506 1505 1508 1507 1506 1505 1504 1503 1501 1501 1501 1499 1498
1484 1483 1484 1484 1485 1488 1489 1493 1495 1498 1501 1503 1505 1507 1509 1509 1509 1510 1510 1510 1509 1510 1510 1510 1510 1508 1507 1507 1506 1508 1508 1506 1505 1507 1506 1505 1505 1504 1503 1502 1501 1500 1499 1497
1478 1480 1482 1484 1485 1486 1488 1489 1491 1493 1494 1497 1500 1502 1503 1504 1505 1506 1506 1506 1506 1506 1507 1507 1507 1506 1506 1506 1506 1506 1506 1506 1505 1505 1504 1503 1503 1502 1502 1501 1500 1499 1498 1497
1473 1473 1475 1477 1479 1480 1482 1484 1485 1488 1490 1492 1494 1495 1497 1499 1500 1501 1502 1502 1502 1502 1502 1502 1502 1503 1503 1503 1503 1503 1503 1503 1503 1502 1502 1501 1501 1500 1499 1499 1497 1496 1495 1494
1469 1469 1470 1471 1472 1474 1476 1477 1480 1482 1484 1487 1488 1489 1490 1491 1493 1495 1496 1496 1496 1497 1498 1499 1497 1498 1499 1499 1499 1500 1500 1500 1500 1500 1499 1499 1498 1498 1497 1496 1495 1494 1493 1492
1467 1465 1465 1466 1466 1467 1468 1471 1473 1474 1477 1479 1481 1481 1483 1486 1488 1488 1490 1490 1490 1491 1492 1492 1493 1493 1494 1494 1495 1496 1496 1496 1496 1496 1496 1496 1495 1495 1494 1493 1492 1491 1490 1489
1465 1463 1461 1459 1459 1460 1462 1463 1465 1467 1469 1471 1472 1475 1476 1478 1481 1482 1482 1483 1485 1485 1486 1486 1486 1488 1489 1490 1490 1491 1491 1492 1492 1492 1491 1491 1491 1490 1490 1488 1488 1487 1485 1484
1463 1460 1457 1454 1452 1452 1455 1456 1457 1458 1460 1462 1464 1466 1468 1471 1473 1475 1475 1477 1478 1479 1479 1480 1481 1481 1483 1484 1484 1485 1486 1486 1486 1486 1486 1486 1486 1485 1484 1483 1483 1481 1480 1479
1460 1457 1453 1449 1448 1448 1447 1448 1450 1451 1451 1454 1457 1459 1461 1463 1464 1466 1468 1470 1471 1471 1472 1473 1474 1475 1477 1477 1478 1478 1479 1480 1480 1480 1480 1480 1479 1479 1477 1477 1476 1475 1473 1472
1460 1455 1449 1445 1444 1442 1443 1443 1444 1444 1446 1446 1447 1450 1451 1453 1455 1458 1460 1461 1462 1463 1464 1465 1467 1469 1470 1470 1471 1471 1472 1473 1473 1473 1473 1472 1471 1470 1470 1469 1468 1466 1465 1464
1456 1451 1447 1442 1439 1437 1436 1436 1436 1436 1437 1438 1439 1440 1442 1444 1446 1449 1451 1452 1454 1454 1454 1456 1458 1460 1461 1461 1462 1462 1463 1463 1463 1463 1464 1463 1462 1461 1460 1459 1458 1457 1456 1454
1447 1444 1441 1436 1432 1431 1430 1430 1429 1429 1430 1430 1430 1431 1432 1434 1436 1439 1440 1442 1443 1444 1445 1446 1448 1450 1451 1452 1453 1453 1453 1453 1454 1454 1453 1453 1453 1452 1451 1450 1448 1447 1445 1443